When you browse on this site, cookies collect data to enhance your experience and personalize the content and advertising you see.
Visit our Privacy Policy to learn more. By continuing to use the site, you agree to this use of cookies and data.
  • In Latvia
  • List of Countries
  • For 7 days
  • Water Temperature
  • Weather Map
  • Weather Widgets
  • user-avatar
    Login

    Hourly Weather Toledo

    Today, 19 October, Saturday

    Time Temperature Precipitation Wind Pressure Humidity
    00:00 +7°C° 0 mm 2 mps 746 mmHg 76%
    01:00 +7°C° 0 mm 2 mps 745 mmHg 76%
    02:00 +7°C° 0 mm 2 mps 745 mmHg 75%
    03:00 +6°C° 0 mm 2 mps 745 mmHg 75%
    04:00 +6°C° 0 mm 2 mps 745 mmHg 75%
    05:00 +6°C° 0 mm 2 mps 745 mmHg 75%
    06:00 +7°C° 0 mm 1 mps 745 mmHg 69%
    07:00 +8°C° 0 mm 2 mps 745 mmHg 65%
    08:00 +10°C° 0 mm 2 mps 745 mmHg 60%
    09:00 +12°C° 0 mm 3 mps 745 mmHg 55%
    10:00 +13°C° 0 mm 3 mps 744 mmHg 52%
    11:00 +16°C° 0 mm 3 mps 744 mmHg 48%
    12:00 +17°C° 0 mm 3 mps 743 mmHg 45%
    13:00 +17°C° 0 mm 3 mps 743 mmHg 45%
    14:00 +17°C° 0 mm 3 mps 742 mmHg 46%
    15:00 +17°C° 0 mm 3 mps 741 mmHg 47%
    16:00 +16°C° 0 mm 3 mps 742 mmHg 51%
    17:00 +13°C° 0 mm 3 mps 742 mmHg 56%
    18:00 +13°C° 0 mm 2 mps 742 mmHg 61%
    19:00 +12°C° 0 mm 2 mps 742 mmHg 63%
    20:00 +12°C° 0 mm 2 mps 742 mmHg 65%
    21:00 +12°C° 0 mm 2 mps 742 mmHg 67%
    22:00 +12°C° 0 mm 2 mps 741 mmHg 69%
    23:00 +10°C° 0 mm 2 mps 741 mmHg 71%

    Tomorrow, 20 October, Sunday

    Time Temperature Precipitation Wind Pressure Humidity
    00:00 +10°C° 0 mm 2 mps 741 mmHg 73%
    01:00 +10°C° 0 mm 2 mps 741 mmHg 74%
    02:00 +12°C° 0 mm 2 mps 741 mmHg 76%
    03:00 +12°C° 0 mm 2 mps 741 mmHg 77%
    04:00 +12°C° 0 mm 2 mps 741 mmHg 80%
    05:00 +10°C° 0 mm 2 mps 741 mmHg 82%
    06:00 +10°C° 0 mm 2 mps 741 mmHg 85%
    07:00 +13°C° 0 mm 2 mps 742 mmHg 80%
    08:00 +14°C° 0 mm 1 mps 742 mmHg 76%
    09:00 +15°C° 0 mm 1 mps 742 mmHg 72%
    10:00 +16°C° 0 mm 1 mps 742 mmHg 68%
    11:00 +19°C° 0 mm 1 mps 742 mmHg 64%
    12:00 +20°C° 0 mm 1 mps 742 mmHg 60%
    13:00 +20°C° 0 mm 1 mps 742 mmHg 60%
    14:00 +20°C° 0 mm 1 mps 742 mmHg 60%
    15:00 +21°C° 0 mm 1 mps 742 mmHg 61%
    16:00 +18°C° 0 mm 2 mps 742 mmHg 65%
    17:00 +17°C° 0 mm 2 mps 742 mmHg 69%
    18:00 +16°C° 0 mm 3 mps 743 mmHg 73%
    19:00 +16°C° 0 mm 3 mps 743 mmHg 74%
    20:00 +16°C° 0 mm 3 mps 743 mmHg 74%
    21:00 +16°C° 0 mm 3 mps 743 mmHg 75%
    22:00 +16°C° 0 mm 3 mps 743 mmHg 78%
    23:00 +14°C° 0 mm 3 mps 743 mmHg 81%

    Day after tomorrow, 21 October, Monday

    Time Temperature Precipitation Wind Pressure Humidity
    00:00 +14°C° 0 mm 3 mps 743 mmHg 84%
    01:00 +14°C° 0 mm 3 mps 743 mmHg 84%
    02:00 +16°C° 0 mm 3 mps 742 mmHg 84%
    03:00 +16°C° 0 mm 3 mps 742 mmHg 83%
    04:00 +16°C° 0.1 mm 3 mps 742 mmHg 86%
    05:00 +16°C° 0.1 mm 3 mps 742 mmHg 89%
    06:00 +15°C° 0.1 mm 4 mps 741 mmHg 92%
    07:00 +16°C° 0.1 mm 5 mps 741 mmHg 85%
    08:00 +17°C° 0.1 mm 6 mps 741 mmHg 78%
    09:00 +18°C° 0.1 mm 8 mps 740 mmHg 71%
    10:00 +18°C° 0.3 mm 8 mps 740 mmHg 71%
    11:00 +20°C° 0.3 mm 8 mps 739 mmHg 72%
    12:00 +21°C° 0.3 mm 8 mps 738 mmHg 72%
    13:00 +20°C° 0.6 mm 7 mps 738 mmHg 75%
    14:00 +20°C° 0.6 mm 7 mps 737 mmHg 78%
    15:00 +20°C° 0.6 mm 7 mps 736 mmHg 80%
    16:00 +19°C° 0.1 mm 6 mps 736 mmHg 82%
    17:00 +17°C° 0.1 mm 6 mps 736 mmHg 84%
    18:00 +17°C° 0.1 mm 5 mps 736 mmHg 86%
    19:00 +16°C° 0.3 mm 5 mps 736 mmHg 84%
    20:00 +16°C° 0.3 mm 6 mps 736 mmHg 83%
    21:00 +16°C° 0.3 mm 6 mps 736 mmHg 82%
    22:00 +14°C° 0 mm 6 mps 737 mmHg 79%
    23:00 +11°C° 0 mm 6 mps 737 mmHg 77%

    22 October, Tuesday

    Time Temperature Precipitation Wind Pressure Humidity
    00:00 +9°C° 0 mm 6 mps 737 mmHg 74%
    01:00 +9°C° 0 mm 6 mps 737 mmHg 74%
    02:00 +8°C° 0 mm 6 mps 738 mmHg 75%
    03:00 +7°C° 0 mm 6 mps 738 mmHg 76%
    04:00 +7°C° 0 mm 6 mps 738 mmHg 75%
    05:00 +7°C° 0 mm 6 mps 739 mmHg 74%
    06:00 +5°C° 0 mm 6 mps 739 mmHg 73%
    07:00 +6°C° 0 mm 7 mps 739 mmHg 66%
    08:00 +9°C° 0 mm 8 mps 739 mmHg 58%
    09:00 +10°C° 0 mm 9 mps 739 mmHg 51%
    10:00 +11°C° 0 mm 9 mps 739 mmHg 47%
    11:00 +12°C° 0 mm 10 mps 739 mmHg 43%
    12:00 +12°C° 0 mm 10 mps 739 mmHg 39%
    13:00 +12°C° 0 mm 10 mps 738 mmHg 39%
    14:00 +12°C° 0 mm 9 mps 738 mmHg 39%
    15:00 +12°C° 0 mm 9 mps 738 mmHg 39%
    16:00 +11°C° 0 mm 8 mps 739 mmHg 43%
    17:00 +10°C° 0 mm 8 mps 739 mmHg 47%
    18:00 +9°C° 0 mm 7 mps 739 mmHg 50%
    19:00 +9°C° 0 mm 7 mps 740 mmHg 53%
    20:00 +9°C° 0 mm 7 mps 740 mmHg 55%
    21:00 +8°C° 0 mm 7 mps 740 mmHg 58%
    22:00 +8°C° 0 mm 7 mps 740 mmHg 58%
    23:00 +6°C° 0 mm 7 mps 740 mmHg 59%

    23 October, Wednesday

    Time Temperature Precipitation Wind Pressure Humidity
    00:00 +5°C° 0 mm 7 mps 740 mmHg 60%
    01:00 +5°C° 0 mm 7 mps 741 mmHg 61%
    02:00 +5°C° 0 mm 6 mps 741 mmHg 63%
    03:00 +5°C° 0 mm 6 mps 741 mmHg 64%
    04:00 +4°C° 0 mm 6 mps 742 mmHg 64%
    05:00 +4°C° 0 mm 6 mps 742 mmHg 65%
    06:00 +4°C° 0 mm 7 mps 743 mmHg 65%
    07:00 +5°C° 0 mm 7 mps 743 mmHg 59%
    08:00 +8°C° 0 mm 7 mps 743 mmHg 54%
    09:00 +9°C° 0 mm 8 mps 743 mmHg 49%
    10:00 +11°C° 0 mm 8 mps 743 mmHg 46%
    11:00 +13°C° 0 mm 8 mps 743 mmHg 43%
    12:00 +16°C° 0 mm 7 mps 743 mmHg 40%
    13:00 +16°C° 0 mm 8 mps 742 mmHg 40%
    14:00 +16°C° 0 mm 8 mps 742 mmHg 41%
    15:00 +16°C° 0 mm 8 mps 742 mmHg 41%
    16:00 +16°C° 0 mm 8 mps 742 mmHg 43%
    17:00 +15°C° 0 mm 8 mps 742 mmHg 45%
    18:00 +15°C° 0 mm 7 mps 742 mmHg 47%
    19:00 +13°C° 0 mm 8 mps 743 mmHg 49%
    20:00 +13°C° 0 mm 8 mps 743 mmHg 50%
    21:00 +13°C° 0 mm 8 mps 743 mmHg 51%
    22:00 +13°C° 0 mm 8 mps 743 mmHg 52%
    23:00 +13°C° 0 mm 8 mps 743 mmHg 52%

    24 October, Thursday

    Time Temperature Precipitation Wind Pressure Humidity
    00:00 +13°C° 0 mm 8 mps 743 mmHg 53%
    01:00 +13°C° 0 mm 8 mps 743 mmHg 56%
    02:00 +14°C° 0 mm 7 mps 744 mmHg 59%
    03:00 +14°C° 0 mm 7 mps 744 mmHg 62%
    04:00 +13°C° 0 mm 6 mps 745 mmHg 68%
    05:00 +12°C° 0 mm 5 mps 746 mmHg 74%
    06:00 +10°C° 0 mm 5 mps 746 mmHg 81%
    07:00 +10°C° 0 mm 5 mps 747 mmHg 75%
    08:00 +11°C° 0 mm 4 mps 748 mmHg 69%
    09:00 +11°C° 0 mm 4 mps 748 mmHg 63%
    10:00 +12°C° 0 mm 4 mps 748 mmHg 57%
    11:00 +13°C° 0 mm 3 mps 748 mmHg 50%
    12:00 +13°C° 0 mm 3 mps 749 mmHg 44%
    13:00 +13°C° 0 mm 3 mps 749 mmHg 43%
    14:00 +13°C° 0 mm 3 mps 748 mmHg 43%
    15:00 +13°C° 0 mm 3 mps 748 mmHg 42%
    16:00 +13°C° 0 mm 3 mps 749 mmHg 44%
    17:00 +13°C° 0 mm 2 mps 749 mmHg 46%
    18:00 +13°C° 0 mm 2 mps 749 mmHg 47%
    19:00 +12°C° 0 mm 2 mps 749 mmHg 49%
    20:00 +12°C° 0 mm 2 mps 749 mmHg 51%
    21:00 +12°C° 0 mm 2 mps 749 mmHg 53%
    22:00 +10°C° 0 mm 2 mps 748 mmHg 57%
    23:00 +10°C° 0 mm 3 mps 748 mmHg 60%
    Show more